Location: Biltmore Gardens
(41.6070°N, 83.4666°W)
Time: 13:05:43
(UTC+00:00)

Landsat 5 - Pass Details

Date: 14 July 2020
Orbit: 528 x 654 km, 98.2° (Epoch: 05 August)

Event Time Altitude Azimuth Distance (km) Brightness Sun altitude
Rises 09:32:00 0° 181° (S) 2,726 6.5 -7.1°
Reaches altitude 10° 09:34:14 10° 189° (S) 1,819 5.6 -6.8°
Maximum altitude 09:37:57 42° 260° (W) 784 3.7 -6.2°
Drops below altitude 10° 09:41:37 10° 332° (NNW) 1,793 6.1 -5.7°
Sets 09:43:49 0° 340° (NNW) 2,681 7.0 -5.3°
